STARLINK-11575, 63308

Orbit data source: Space-Track

STARLINK-11575, 63308 is a payload satellite owned by SpaceX/Seattle (US) in LEO that was launched on Tue, 18 Mar 2025 UTC via an FALCON 9 launch vehicle from the Air Force Eastern Test Range (AFETR). Payload-class satellites include a variety of spacecraft equipped with specific instruments for various scientific and technological missions. These include communications satellites like Starlink; space stations such as the ISS; scientific satellites like the Hubble; Earth observation satellites from companies like Planet Labs, Umbra, and HawkEye 360; GPS; miniature CubeSats for education and research; and military/defense satellites.

Loading next visibility...
Identifier
63308, 2025-057B
Orbit
LEO
Country
Flag of USUS
Related business
Manufacturer
SpaceX/Seattle
Mission
Operational Commercial Communications
Bus & Motor
STARLINK V2MD, Unknown motor
Mass
960 kg wet, ~910 kg dry
Launch date (UTC)
2025-03-18 (7 months ago)
Launch vehicle
FALCON 9
Launch site
Air Force Eastern Test Range (AFETR)
Object type
Payload
Rocket body
Debris
Shape & HBR
Box + 2 Pan, 18.1 m
Radar Cross Section
36.964 m², Large (>1 m²)

Expand to show TLE details & history
Last TLE update: 8 hours ago

TLE from 8 hours ago
0 STARLINK-11575
1 63308U 25057B   25299.50724178  .00192342  00000-0  14654-2 0  9993
2 63308  43.0024 353.3919 0002570 273.4369  86.6205 15.70880908 36075
Epoch: 2025-10-26T12:10Z
TLE epoch observation values (Epoch: 2025-10-26T12:10:25.689Z)
Latitude
-0.00001°
Longitude
135.6624°
Altitude
356.048 km
Speed
7.697 km/s
True Right ascension
23h 33m 34s
True Declination
0° 00' 00"
Sunlit
Object was in full shadow at epoch
Visualization orbit readout
Latitude
Unknown
Longitude
Unknown
Altitude
Unknown
Speed
Unknown
Apparent Right ascension
Unknown
Apparent Declination
Unknown
Sunlit
N/A
Visualization observer readout
Local Sidereal Time
15:30:42
Azimuth
Unknown
Elevation
Unknown
Doppler factor
Unknown
Orbital elements
Apogee altitude
360.091 km
Perigee altitude
356.628 km
Semi-major axis
6,736.496 km
Eccentricity
0.00026
Inclination
43.0024°
RAAN
353.3919°
Arg. of periapsis
273.4369°
True anomaly
86.6499°
Mean anomaly
86.6205°
Eccentric anomaly
86.6352°
Mean motion
3.92547 °/min
Orbital period
91.71 mins
BSTAR
0.0014654
Loading maneuver chart data...
Computing Atmospheric mass density...
Loading historical data...
Loading historical data...
Loading historical data...
Loading historical data...
Loading historical data...
Loading historical data...
Loading historical data...

Documentation

Showing up to 5 results
|